Theta_e
292 292 293 294 295 295 296 297 296 294 293 294 294 295 296 296 297 297 298 299 299 298 296 294 293 294 301 305 307 304 308 306 306 311 311 311 307 306 305 308 312 311 312 312 305 304 308 306 308 309 308 308 308 310
291 291 293 293 292 293 295 297 295 294 294 294 294 294 295 297 296 297 298 298 298 298 297 296 295 294 295 299 305 307 306 305 308 308 307 306 304 303 305 311 307 309 310 310 310 307 306 307 309 309 310 308 307 309
291 290 293 293 292 293 295 296 295 295 295 294 294 295 295 297 297 297 298 297 298 297 297 295 295 296 297 300 303 307 307 309 308 308 304 305 304 304 307 307 308 306 307 305 305 306 304 307 307 309 309 309 308 308
290 289 291 294 293 294 296 296 295 295 294 293 295 296 297 297 298 298 298 298 298 298 299 297 296 295 298 301 303 305 305 306 307 306 303 305 305 301 306 304 305 304 305 303 303 303 304 306 307 308 307 308 308 308
290 290 290 293 293 294 296 295 295 294 294 294 295 296 296 295 295 295 296 296 296 297 299 297 297 296 298 302 303 303 304 306 305 304 303 304 300 302 297 302 301 303 305 306 305 304 306 307 307 306 306 307 307 308
289 290 290 291 293 294 295 294 294 293 293 293 293 294 295 296 297 297 297 294 296 297 297 298 297 296 298 300 304 304 305 307 303 301 299 298 298 302 305 306 299 302 303 304 305 306 308 309 307 306 305 304 304 305
289 289 289 290 291 291 293 292 292 292 292 293 293 294 295 295 295 295 293 293 294 295 297 298 298 296 296 297 299 302 303 304 303 300 299 299 298 302 304 299 292 292 298 300 301 303 302 303 303 303 304 302 302 301
288 289 289 289 290 290 291 292 292 292 292 292 292 293 294 295 295 295 294 293 293 294 296 298 298 297 294 294 295 296 297 298 296 297 299 299 299 301 295 289 286 287 293 297 298 301 303 303 301 301 301 300 300 299
287 288 289 290 290 290 290 291 292 291 291 291 291 292 292 293 294 293 293 293 293 293 293 292 291 294 293 294 294 295 297 296 295 297 296 298 293 287 282 280 280 278 280 284 291 295 297 300 298 298 299 298 300 297
286 287 288 289 289 290 290 290 291 291 291 291 291 291 291 290 291 292 292 293 292 290 290 289 288 293 291 293 292 296 294 294 295 293 293 290 282 278 275 274 274 276 280 286 291 290 292 292 293 294 295 296 297 295
285 285 286 288 288 289 289 290 290 290 291 290 291 290 289 290 290 290 288 286 286 287 285 286 288 290 291 292 293 291 293 293 297 293 296 294 286 277 273 273 275 277 280 283 284 287 290 291 291 291 291 291 291 291
282 283 284 286 287 287 288 289 289 289 290 289 289 288 288 288 288 284 280 283 284 283 283 284 286 287 290 290 293 291 293 294 294 289 296 291 277 271 271 272 274 276 279 281 285 286 287 288 288 289 288 288 289 289
282 282 282 282 286 286 288 288 288 289 289 288 287 286 284 283 280 281 282 282 283 278 280 281 287 288 289 289 290 291 292 291 288 293 287 278 273 270 270 272 273 274 277 279 281 284 286 288 288 290 290 290 290 289
283 282 282 282 285 286 287 288 288 287 287 285 284 278 277 275 274 274 275 276 277 276 276 277 285 287 288 287 287 289 286 286 293 293 285 275 268 268 269 270 273 273 275 277 279 281 283 285 288 288 287 286 286 286
282 283 283 282 282 284 286 287 287 287 285 281 280 275 274 274 274 274 273 274 275 274 275 281 285 289 285 285 285 286 289 289 285 284 275 268 267 268 270 271 271 273 274 276 277 279 281 282 283 284 283 283 283 284
283 283 282 282 283 284 285 286 286 285 281 277 273 276 274 275 276 273 272 273 274 275 278 280 284 285 284 282 284 281 285 284 278 270 267 267 267 268 269 270 271 272 273 274 275 277 279 280 282 283 283 283 282 282
284 284 284 284 284 284 286 285 283 279 275 273 269 269 269 271 271 271 270 271 274 275 278 280 283 284 283 284 281 273 274 270 267 266 266 267 268 268 269 270 271 272 273 274 275 276 277 279 279 278 279 279 280 281
284 283 284 284 284 285 284 282 279 276 270 271 270 270 270 270 271 272 272 273 274 274 278 276 280 279 276 280 276 269 267 266 266 267 267 268 268 269 269 270 271 271 272 273 274 275 276 276 277 278 278 278 279 280
283 283 283 284 284 284 282 279 278 272 271 271 271 271 271 272 272 272 273 275 275 275 276 279 271 270 270 267 267 266 265 266 266 268 268 269 270 270 270 271 272 272 273 274 275 275 276 276 277 277 277 278 278 278
283 283 283 284 284 283 279 277 276 275 271 273 273 273 273 273 273 274 275 276 275 275 267 265 262 264 265 265 266 266 267 267 268 269 269 269 270 271 271 272 273 273 274 274 274 275 275 276 276 276 276 277 277 277
283 283 283 284 282 280 276 273 273 273 273 273 272 272 273 273 273 273 273 274 273 266 263 266 267 267 267 267 267 268 268 268 268 268 268 270 270 271 271 271 272 272 273 274 274 274 275 274 274 275 275 275 275 275
283 283 283 282 280 278 275 273 272 273 273 272 272 272 270 269 269 270 271 271 267 268 268 268 268 268 268 269 269 269 269 270 269 269 269 270 270 270 271 271 271 271 272 271 272 272 272 272 273 272 272 272 272 272
282 282 280 280 279 276 271 272 272 271 266 269 272 269 266 268 269 271 269 269 269 269 269 269 269 269 269 269 269 269 270 270 270 270 271 270 270 270 271 270 270 271 271 270 270 271 271 270 270 270 270 270 270 270
281 278 276 273 271 267 271 270 270 270 269 264 263 264 263 265 270 272 265 270 271 270 269 269 269 269 269 269 269 269 270 270 270 270 269 270 270 270 270 270 270 270 270 270 270 270 270 270 270 269 269 269 269 269
278 268 269 263 267 266 262 262 262 263 261 259 262 262 260 264 262 264 266 272 271 271 270 270 270 270 270 270 270 269 269 269 269 270 269 269 269 270 269 269 270 269 269 269 269 269 269 269 268 268 268 268 268 268
260 263 260 261 262 262 258 261 257 257 256 258 260 263 262 258 264 268 266 272 271 271 271 271 271 271 271 270 270 270 270 270 270 270 270 270 270 270 270 270 271 271 269 269 269 269 269 268 268 268 268 268 267 267
263 260 262 263 262 261 260 259 259 257 258 260 256 256 257 266 266 269 273 272 272 272 272 271 271 271 270 270 270 269 269 269 269 269 269 269 269 269 269 269 269 269 268 268 268 267 267 267 267 267 267 267 267 266
264 263 260 262 261 261 257 255 255 259 257 261 258 259 263 265 266 273 273 272 272 272 272 271 271 271 271 271 270 270 270 270 270 270 270 270 270 270 269 269 269 268 268 267 267 267 266 266 266 266 266 266 266 266
264 264 263 261 261 261 261 260 261 262 262 261 258 258 265 270 274 274 273 273 273 273 273 272 272 271 271 271 270 270 270 269 269 270 270 270 270 270 268 268 268 267 267 266 266 266 266 266 266 266 266 266 266 266
264 264 262 260 257 260 263 263 263 262 262 262 263 263 266 271 274 274 274 274 274 274 273 273 273 273 273 272 272 272 271 270 270 269 269 268 268 268 268 267 267 267 266 266 266 266 266 265 265 265 265 265 265 265
264 263 262 261 261 262 263 263 263 262 260 261 260 260 263 268 275 277 277 276 276 275 275 274 273 273 272 272 272 272 272 271 270 269 268 268 268 268 268 268 267 267 267 267 266 266 266 266 266 266 265 265 265 264
263 262 261 259 263 262 262 261 262 261 260 260 261 261 263 264 269 276 277 277 276 276 275 274 274 273 272 272 271 271 271 270 270 269 269 268 268 267 267 267 267 267 266 266 266 266 265 265 264 264 264 264 263 263
262 261 260 261 261 261 261 261 260 259 259 260 262 261 262 264 267 275 277 277 276 276 275 274 273 272 272 272 271 270 270 270 269 269 268 268 267 267 267 267 267 266 266 265 265 264 264 263 263 263 262 262 261 261
Wind_Speed
16 14 9 6 9 7 11 11 15 15 14 13 11 9 7 5 4 3 5 12 10 7 7 6 6 5 5 10 7 12 9 1 2 4 3 3 4 5 5 8 17 9 11 8 3 3 10 12 15 16 6 4 13 16
15 12 14 11 10 10 8 13 13 13 12 11 9 7 5 4 2 4 5 6 7 5 4 7 5 2 5 6 12 26 4 7 7 4 2 4 3 4 6 9 9 4 8 9 12 6 4 31 22 16 19 17 15 20
17 18 20 10 11 12 12 14 13 12 11 10 9 7 5 3 2 3 6 8 4 1 1 6 6 4 3 7 22 6 9 16 4 5 5 3 5 3 4 4 12 2 5 5 5 5 8 26 12 20 19 24 23 20
17 18 13 18 16 14 13 14 13 13 12 11 10 9 7 5 5 5 6 2 2 1 2 1 14 5 2 10 24 17 4 11 5 5 3 3 4 1 4 5 5 4 6 7 1 1 7 19 22 31 19 20 23 20
18 18 15 20 14 14 16 13 13 13 12 11 9 9 10 10 9 10 10 9 2 1 2 4 4 21 5 9 16 15 5 5 2 3 4 3 2 4 1 3 2 3 6 8 5 16 10 22 35 25 27 26 25 25
19 19 14 16 17 20 19 17 13 13 12 10 7 4 3 3 4 4 2 9 5 4 2 2 6 12 12 16 16 11 7 4 5 5 3 3 2 3 3 3 4 11 7 4 1 23 14 21 32 28 28 25 24 22
22 18 16 16 16 14 20 17 14 13 13 12 11 11 10 3 2 4 5 6 4 2 2 1 1 9 16 10 10 12 8 6 5 5 3 2 3 5 2 3 7 16 11 11 15 16 15 22 18 28 28 28 25 24
32 26 19 14 14 12 13 11 10 8 9 9 9 9 10 9 8 7 10 14 3 3 3 2 2 4 19 9 3 7 5 5 10 4 3 2 3 3 4 7 11 13 5 8 7 0 9 18 26 28 28 29 28 27
29 30 25 18 15 11 7 7 4 5 5 5 6 5 4 4 4 8 8 8 11 7 3 3 4 3 14 10 8 6 6 3 5 2 2 3 4 4 5 9 10 14 10 10 9 8 15 22 29 30 30 29 30 29
28 26 29 26 14 9 6 3 4 3 3 4 3 4 4 6 7 7 4 5 6 10 8 3 9 3 9 8 4 2 6 2 2 3 4 4 3 10 11 9 9 9 8 7 8 13 18 24 28 29 28 27 27 28
28 27 23 25 24 19 10 5 4 4 3 4 5 4 5 8 6 5 6 7 7 4 10 7 8 3 14 3 3 7 2 2 2 1 1 2 3 3 11 11 11 8 7 8 10 12 16 23 27 27 27 27 27 26
22 23 24 20 21 18 10 8 6 4 5 6 5 5 7 8 6 6 2 3 5 2 7 4 6 6 6 6 2 5 2 1 3 4 0 3 3 8 10 11 12 9 9 11 13 15 19 22 23 25 25 24 23 21
17 15 16 21 14 16 8 8 10 10 7 7 5 5 8 9 10 6 6 4 3 8 11 9 3 5 6 8 2 2 3 2 3 3 3 3 5 9 11 9 10 10 11 14 17 18 19 21 20 19 20 19 17 16
13 13 10 12 15 11 13 7 5 7 4 6 7 7 4 5 4 2 3 3 5 7 16 13 6 3 4 3 2 4 1 1 2 3 3 2 8 10 10 10 8 11 11 13 16 16 18 19 19 19 18 17 15 15
17 12 10 9 11 11 11 5 6 5 6 7 7 5 4 1 2 4 6 7 8 14 11 5 5 2 3 3 2 1 4 4 4 3 2 6 8 7 9 9 9 9 9 11 12 13 14 15 15 16 15 14 13 13
25 22 20 15 13 11 8 8 6 9 7 7 10 3 8 2 4 9 12 8 18 16 6 3 2 3 4 2 5 4 3 4 2 2 2 3 5 6 7 8 9 8 8 8 9 10 10 11 12 12 12 11 11 11
22 25 21 16 14 14 7 6 8 10 8 6 6 9 5 2 3 7 12 17 18 11 2 2 5 2 2 3 4 4 3 1 3 3 2 3 4 6 7 7 8 7 7 7 7 7 7 7 7 7 7 6 6 6
22 23 21 15 12 11 21 12 8 9 10 11 4 6 7 9 7 8 14 20 15 8 7 2 4 6 4 3 3 2 3 3 3 2 2 3 4 6 7 7 6 6 6 5 5 5 5 4 3 3 3 3 4 5
18 20 20 12 11 7 7 9 8 7 7 3 5 10 4 5 12 15 21 17 9 10 4 5 6 3 3 4 3 3 3 3 2 4 3 3 3 3 5 7 6 6 6 5 4 3 2 2 1 3 4 5 6 8
16 15 16 14 6 6 7 8 7 7 5 5 7 8 5 6 11 14 20 18 14 6 10 5 1 2 1 2 2 2 3 4 4 4 4 5 5 4 6 6 6 6 7 7 6 6 6 6 6 7 9 10 11 13
13 17 19 19 22 15 9 6 8 6 4 4 8 7 5 8 9 17 18 17 9 7 3 3 2 3 3 4 4 3 3 4 4 3 4 5 6 8 7 8 8 8 8 8 8 9 10 11 12 13 14 15 17 18
15 13 17 17 11 8 10 12 5 4 3 4 6 7 7 6 9 11 13 11 5 5 4 3 4 4 5 5 5 5 5 5 6 7 8 9 10 10 9 10 10 10 10 10 10 10 10 10 10 11 12 13 15 15
10 13 10 12 7 9 4 8 4 7 4 8 4 4 4 6 9 11 4 5 3 5 5 5 5 6 6 5 5 5 5 5 5 6 7 8 9 10 10 11 13 14 14 12 15 15 15 15 16 17 18 19 20 20
13 8 9 8 12 4 5 8 6 6 5 4 4 4 5 7 12 5 2 3 5 8 6 6 6 6 6 6 7 8 8 9 9 9 11 11 11 10 12 12 12 13 15 16 16 17 17 17 18 19 20 21 21 22
5 13 8 8 10 6 6 5 7 6 3 3 4 3 4 7 3 3 1 3 7 7 7 7 7 8 9 8 9 9 11 11 12 11 11 14 15 14 14 15 16 16 19 19 17 18 18 20 20 20 21 22 23 24
7 11 6 4 5 4 1 3 3 2 2 4 1 4 3 2 3 3 3 4 6 7 7 7 8 9 8 9 10 10 11 12 13 14 13 14 16 18 20 21 21 16 17 18 19 19 19 20 22 23 24 23 25 27
5 3 5 5 3 3 3 2 1 2 2 1 3 5 3 3 3 3 4 5 6 8 9 9 10 10 11 11 12 13 15 15 16 17 18 18 18 20 21 21 22 20 20 20 21 22 23 24 25 26 28 29 29 29
4 4 2 3 1 1 3 1 2 3 2 2 1 1 3 6 4 2 4 10 11 11 12 12 13 14 14 14 15 16 16 17 18 19 20 20 17 19 18 19 19 20 22 23 24 26 27 29 31 32 33 35 35 33
3 5 4 2 2 2 2 3 2 2 2 2 3 3 4 6 6 11 17 15 13 13 12 12 13 16 18 18 18 18 19 19 21 23 24 26 25 23 22 24 24 24 25 27 28 30 31 33 34 36 37 38 39 39
2 5 2 1 0 2 2 3 3 5 7 8 7 9 14 21 15 14 16 16 13 10 9 8 9 12 15 17 17 16 16 17 19 21 25 28 29 30 31 32 32 31 31 33 35 35 34 35 37 38 39 40 40 40
3 2 1 2 3 2 4 7 13 16 13 9 13 16 16 14 15 6 5 5 7 9 9 9 9 11 14 16 20 24 24 21 23 25 27 30 32 34 35 35 36 37 38 39 39 39 40 39 38 38 38 38 37 37
2 1 1 2 2 4 8 3 5 4 4 4 4 5 6 6 7 5 6 7 9 12 13 16 18 18 21 23 25 27 29 29 28 28 30 33 36 37 38 38 38 37 37 37 36 36 35 35 36 36 38 38 38 37
3 3 4 3 3 2 3 6 3 4 5 4 4 4 5 5 8 5 6 6 7 8 11 15 18 22 26 28 29 31 33 33 31 31 32 33 35 35 34 33 32 31 31 31 32 33 34 35 35 35 35 35 35 35
Wind_Direction
21 24 37 129 110 118 113 133 118 124 138 138 145 153 159 144 143 183 220 209 204 208 244 254 256 260 256 168 168 161 128 6 4 102 120 139 131 196 108 154 169 166 164 188 128 152 253 168 146 156 193 162 173 175
22 8 40 134 133 140 121 137 129 124 125 129 133 141 160 172 211 236 231 199 198 218 264 254 272 256 242 223 141 176 129 151 167 139 163 130 132 144 144 156 181 157 196 171 190 192 211 170 170 180 176 165 172 169
21 4 23 131 133 138 141 138 133 124 123 125 120 118 130 145 231 189 130 139 159 227 314 32 331 290 312 186 169 176 168 179 183 165 152 142 123 139 144 204 160 209 152 146 108 205 167 184 170 174 178 183 170 167
38 23 354 79 125 126 136 132 129 124 121 122 111 96 115 118 134 218 254 25 20 251 276 261 17 28 323 178 189 177 207 205 162 185 103 112 108 180 181 151 134 189 123 148 103 11 81 182 194 197 183 178 174 169
52 39 18 51 114 133 120 134 125 117 115 111 114 122 114 111 107 78 65 56 41 328 332 311 339 24 89 143 188 196 176 134 16 63 43 83 91 119 343 88 123 186 166 180 215 175 173 196 196 192 187 179 179 172
55 51 46 49 69 71 93 135 119 110 105 100 92 91 154 188 227 313 314 30 44 41 347 350 345 5 48 113 152 168 178 135 58 82 77 76 67 65 97 82 8 24 22 58 357 185 185 193 193 188 183 175 170 170
48 52 51 42 53 70 71 94 102 100 98 92 84 72 68 107 203 82 48 347 23 44 6 327 348 3 11 40 84 84 121 77 78 78 52 75 34 41 74 107 4 19 46 95 115 127 123 162 171 183 182 171 168 162
46 47 51 50 63 60 70 79 95 103 105 95 79 72 72 81 91 57 36 31 43 63 53 349 340 38 13 12 52 42 65 58 39 75 57 40 39 44 79 36 12 7 40 80 55 51 190 172 169 167 168 162 158 155
38 41 51 57 59 75 76 68 99 97 104 103 94 74 29 19 27 0 355 19 40 51 81 44 358 357 353 18 30 43 56 65 48 56 51 16 7 51 19 357 7 5 6 339 52 131 150 164 161 160 162 160 160 151
37 36 43 48 48 64 75 94 84 75 89 93 45 35 43 358 350 347 355 3 35 28 41 44 343 357 357 348 33 35 41 44 68 31 356 60 78 81 28 14 3 359 13 61 115 94 137 143 152 151 153 157 156 152
32 32 34 39 35 44 41 75 101 82 102 28 34 36 14 7 13 23 31 34 346 46 11 346 16 326 12 12 23 17 61 341 95 41 345 103 84 52 3 15 20 31 53 88 105 119 147 149 143 143 141 145 146 147
26 27 27 26 31 27 57 86 68 69 82 71 71 32 10 26 26 68 1 352 35 23 341 330 329 357 339 359 17 3 56 330 77 328 137 88 73 8 10 19 31 50 77 100 116 124 133 136 135 138 135 137 141 142
2 14 17 19 31 39 52 74 91 87 83 50 34 45 11 349 39 42 354 359 20 349 0 337 325 355 350 9 65 36 43 44 283 23 64 40 44 8 15 25 40 60 82 99 109 120 128 129 129 132 131 129 130 137
3 1 3 15 27 33 35 66 92 43 56 54 34 27 53 2 41 18 332 328 319 311 321 315 284 16 359 33 310 79 255 238 79 59 51 41 5 3 15 31 45 55 72 91 101 109 117 124 127 128 130 133 138 141
21 23 35 45 24 24 33 79 56 41 53 61 42 48 48 295 325 340 332 312 323 321 328 312 280 331 1 58 24 82 32 63 39 48 39 5 359 12 26 33 42 50 63 80 94 105 112 118 124 127 129 133 137 142
36 50 55 33 15 14 30 36 45 62 62 57 49 70 349 322 5 1 355 335 345 346 330 286 310 50 42 8 42 29 19 40 32 28 8 3 19 33 41 44 47 52 61 72 85 98 109 119 125 131 138 146 160 168
30 31 28 23 27 26 36 39 44 50 54 53 52 31 44 6 341 337 347 343 352 351 21 343 44 344 297 41 46 16 48 5 343 342 5 53 59 53 51 52 53 54 59 69 79 87 94 110 123 139 147 155 171 185
17 14 14 15 14 47 55 45 68 61 61 46 64 7 48 41 4 9 5 5 11 15 4 43 319 41 38 39 32 46 42 360 0 17 45 72 65 50 41 38 39 42 46 52 68 85 97 115 139 154 177 213 231 237
9 13 17 32 38 60 53 43 47 84 60 50 26 10 11 16 15 16 15 13 29 36 27 22 51 41 45 24 9 11 357 17 348 352 8 357 343 6 16 19 19 16 14 15 19 13 8 342 292 258 259 265 273 272
23 26 34 38 57 65 66 41 50 75 64 29 18 11 20 6 7 11 19 23 41 41 39 41 63 356 358 327 329 332 355 11 14 39 38 38 41 37 7 5 1 356 354 349 343 337 329 314 304 298 295 293 285 283
40 42 48 62 58 62 70 47 52 56 60 51 12 21 4 4 10 10 8 13 51 43 62 53 26 24 4 341 326 323 333 335 332 339 331 338 347 335 344 339 336 331 326 316 307 305 304 300 297 294 291 290 288 289
49 50 44 37 54 62 59 32 64 44 50 27 20 19 28 14 1 4 353 31 52 32 26 7 15 15 9 7 360 353 346 343 340 337 337 340 344 339 343 339 338 335 333 330 325 317 311 304 299 296 295 292 291 290
49 48 49 33 62 43 35 23 52 25 52 352 11 33 16 3 351 353 55 44 53 14 12 13 12 12 13 16 13 14 8 6 -0 353 347 343 341 336 337 335 329 328 326 326 319 320 318 313 309 306 305 305 304 302
54 48 33 40 30 29 8 29 27 19 33 27 22 4 349 335 346 30 53 14 355 358 1 6 9 13 19 15 7 2 0 356 352 346 336 336 335 333 327 325 323 321 317 318 317 312 310 309 306 306 306 305 305 304
62 14 29 10 19 29 30 8 -0 32 31 337 17 354 337 342 19 20 259 317 348 359 2 2 0 359 358 359 352 347 343 340 335 335 331 325 325 324 322 317 315 315 310 311 309 304 306 304 304 303 303 303 303 301
67 17 44 11 6 57 342 26 17 343 355 346 313 321 333 41 36 278 244 311 332 344 347 345 344 346 348 340 338 332 329 326 324 326 326 323 320 319 318 317 317 321 316 311 308 307 306 303 300 300 300 300 299 298
61 350 41 42 58 92 78 74 59 74 17 327 302 354 24 24 277 260 301 333 334 342 346 342 336 332 330 329 325 321 319 316 315 315 316 316 316 314 311 312 313 314 309 308 307 306 302 300 299 299 298 296 296 297
80 34 79 347 21 70 139 130 156 204 228 211 314 324 179 197 239 277 309 322 318 313 315 320 322 322 322 322 319 318 316 311 309 310 312 314 314 313 313 309 310 307 304 303 302 300 300 300 300 299 298 298 298 298
54 12 351 343 315 261 239 199 225 210 210 211 180 255 249 239 254 292 301 303 310 312 313 315 315 314 318 316 313 312 311 310 306 306 309 311 315 317 313 312 310 308 305 301 299 299 300 298 298 297 297 296 298 298
358 351 5 340 315 262 205 229 260 266 263 262 266 276 281 284 295 291 288 284 284 293 297 311 329 342 348 342 336 323 316 310 307 305 306 308 312 312 312 311 309 306 302 300 300 299 297 297 296 294 293 294 295 297
322 329 299 251 258 267 277 286 288 286 279 269 259 254 268 295 310 309 307 292 268 272 274 280 293 313 326 337 339 336 329 323 313 309 308 307 308 308 308 306 304 302 301 300 300 300 301 300 300 300 299 300 301 301
278 246 308 297 281 295 309 301 297 285 280 270 267 261 283 282 277 263 247 259 270 279 299 284 288 300 307 314 319 322 323 320 314 309 305 305 306 306 306 305 304 303 302 302 302 303 304 304 304 304 305 305 305 305
278 251 247 275 285 292 313 325 287 290 263 263 258 262 251 261 259 252 266 276 291 301 309 303 301 298 301 305 307 308 311 313 312 309 308 308 309 311 312 313 313 313 312 310 309 309 309 309 308 308 308 309 310 310